Theta_e
351 353 352 352 354 354 353 353 353 352 353 353 352 352 352 352 352 352 352 351 350 350 349 349 349 349 349 350 350 350 349 348 347 347 345 347 351 345 341 343 344 344 345 345 346 346 346 346 345 343 341 340 340 341 342 343 344 343 343 343 343 342 341 341 341 340 340 341 342 342 342 342 342 343 344 344 344 344 344 344 343 344 344 344 343
352 353 354 353 353 354 354 353 353 353 352 352 352 352 352 353 353 352 352 352 351 350 350 347 347 347 346 347 348 349 349 350 349 348 345 344 350 348 343 343 344 344 345 345 346 346 347 347 346 346 345 343 341 341 341 340 340 341 341 340 341 341 339 339 339 340 340 341 341 342 342 343 343 344 344 344 343 344 344 344 345 344 344 344 344
354 355 355 355 353 353 353 353 352 352 352 352 353 353 352 353 354 353 352 353 351 351 350 348 346 345 344 345 346 348 349 350 349 347 345 344 346 350 347 344 344 345 345 346 346 346 346 347 347 347 347 346 344 344 343 342 341 341 340 340 341 341 340 340 340 341 341 341 343 343 344 344 344 344 344 343 343 344 344 344 344 344 343 343 343
357 356 354 354 353 353 353 352 352 352 352 353 354 353 353 354 356 356 354 354 352 351 350 347 345 344 343 343 343 346 349 349 349 346 346 345 345 348 351 348 345 345 345 345 345 346 346 346 347 347 347 346 346 346 346 345 344 344 343 343 343 344 344 343 343 343 343 343 344 345 345 344 344 344 344 344 344 344 344 344 344 344 343 343 343
358 358 355 354 354 353 353 353 353 353 354 355 355 354 353 353 354 355 354 353 352 352 350 347 345 343 342 342 343 345 348 348 348 347 347 346 345 345 349 351 350 347 345 345 345 345 345 345 346 347 346 346 346 346 346 346 345 345 345 345 345 345 345 345 345 345 345 344 344 345 345 345 345 344 344 344 344 344 344 344 344 344 343 343 343
358 358 356 353 353 353 353 353 354 355 355 355 355 353 353 352 352 352 352 351 351 352 351 347 345 344 343 342 342 344 347 347 348 348 347 346 346 344 345 349 351 349 346 346 346 345 345 345 346 347 346 346 346 345 345 345 346 346 346 346 345 345 345 346 346 345 345 345 344 344 345 345 345 345 344 344 344 344 344 344 344 343 343 343 342
357 359 358 355 353 353 352 353 355 356 355 355 355 353 353 354 352 352 353 351 350 351 353 349 345 344 345 344 342 343 346 348 348 347 348 347 346 346 345 346 349 350 348 348 348 346 346 345 345 346 346 346 346 346 346 346 345 345 346 346 345 345 346 346 347 346 345 345 345 344 345 346 346 345 344 344 344 344 344 344 343 343 343 342 342
354 356 358 357 354 353 353 355 356 356 356 356 354 353 354 355 354 352 353 353 350 350 353 351 346 344 344 343 342 343 345 347 348 347 347 347 347 347 346 346 347 348 349 351 350 348 347 344 345 345 345 346 346 346 346 346 346 346 346 346 346 347 347 346 347 346 345 345 345 345 346 345 345 345 344 344 344 344 344 343 342 342 342 341 340
352 354 358 357 355 354 353 357 357 357 358 357 355 353 354 355 356 354 354 355 353 351 353 351 347 343 342 341 343 344 345 347 347 347 346 345 344 344 344 345 346 345 347 349 351 351 348 344 342 343 345 345 346 346 346 347 347 347 346 347 347 347 347 346 346 346 345 345 345 346 345 345 345 344 344 344 343 343 343 341 340 341 341 338 332
354 354 359 357 356 356 355 357 358 358 359 357 356 355 354 355 356 357 356 356 354 353 353 351 347 343 341 342 344 345 345 347 348 347 346 343 343 343 342 343 344 344 345 345 347 349 349 347 344 343 344 345 345 346 346 346 346 347 347 348 348 347 347 347 346 346 346 346 346 345 345 345 344 344 343 342 342 342 339 335 335 338 337 330 322
358 357 359 359 357 357 356 358 358 359 358 357 357 356 358 357 357 358 358 357 356 356 356 353 348 344 343 342 345 346 347 348 348 346 345 344 343 343 341 342 342 343 343 344 345 347 348 348 348 347 349 347 345 344 345 346 346 347 347 347 346 347 346 347 347 347 346 346 346 346 346 345 343 342 340 338 338 335 330 325 328 331 327 319 316
359 359 360 360 359 358 358 358 357 359 359 357 356 357 360 361 360 359 358 357 356 355 356 353 348 346 345 343 344 346 347 348 347 346 345 344 343 343 343 342 343 343 342 343 343 345 347 348 349 348 349 349 346 343 343 345 346 346 345 345 345 344 346 346 347 347 346 346 346 345 342 338 335 333 331 328 326 322 318 318 320 321 318 316 316
357 359 359 359 360 359 359 359 357 359 359 358 358 359 361 361 359 359 358 357 355 355 354 352 349 347 345 343 344 345 345 346 346 344 343 343 343 343 343 342 343 343 343 343 343 344 345 346 347 346 348 348 348 344 343 343 343 342 342 342 342 343 345 346 346 346 346 345 345 342 335 327 322 320 318 318 317 315 315 316 316 316 316 316 317
357 357 358 358 360 359 360 360 359 359 361 360 360 362 362 361 360 358 355 354 354 354 353 352 350 345 344 343 342 343 342 343 343 342 342 343 342 342 342 342 342 344 344 345 344 344 344 345 346 346 347 348 348 348 346 346 345 343 341 339 339 341 344 344 345 346 345 345 343 336 329 322 317 315 314 315 315 315 317 317 317 317 316 318 319
356 356 356 357 359 359 359 360 361 360 362 363 362 363 363 361 359 358 356 353 351 353 353 352 348 343 344 344 342 342 343 342 341 342 341 341 342 341 342 342 342 344 344 345 344 344 344 345 346 345 346 348 348 348 348 347 346 342 338 336 335 335 338 341 344 345 344 345 341 327 319 318 315 315 316 315 316 317 318 318 319 318 319 320 322
356 356 356 356 358 358 357 359 360 360 361 363 363 362 362 360 360 359 358 353 350 352 354 352 349 345 344 344 341 341 342 343 341 341 341 341 341 341 341 342 343 344 345 345 344 344 344 346 347 346 346 347 347 348 348 348 345 341 336 333 331 329 331 335 341 344 343 344 338 321 315 317 316 317 317 317 318 318 319 319 320 321 322 324 326
356 357 357 357 357 358 357 357 359 359 360 361 361 360 359 359 360 360 359 355 352 352 354 354 351 348 345 344 343 342 342 340 340 341 340 340 340 341 341 341 343 344 345 344 344 346 345 345 348 348 348 348 348 348 348 348 347 346 345 341 334 328 326 328 332 337 341 342 333 319 317 319 318 318 318 318 319 319 320 321 322 323 324 326 327
356 358 357 357 358 358 358 357 357 358 358 358 358 359 359 358 359 359 358 358 356 354 354 354 353 351 347 345 344 343 342 341 341 343 341 339 339 340 340 342 342 343 345 345 345 346 345 345 347 348 349 349 349 348 348 348 346 346 347 345 338 329 324 322 322 325 334 336 327 319 319 320 319 320 319 319 320 321 322 323 323 324 325 326 327
355 358 357 358 358 358 358 357 356 357 357 357 356 356 357 357 358 359 359 360 360 357 355 353 355 353 348 345 344 343 343 342 342 343 342 342 340 340 340 341 341 341 343 344 344 345 345 345 346 347 348 349 348 348 348 349 346 341 337 332 327 324 320 319 318 320 325 325 321 320 321 321 321 320 320 320 321 322 323 323 324 325 325 327 328
356 357 358 357 359 358 358 358 357 357 356 356 356 354 356 358 359 361 361 362 361 360 358 355 355 353 349 347 345 344 345 344 343 343 342 343 342 340 341 340 340 340 341 342 342 344 344 346 346 345 346 348 349 348 347 348 348 346 338 324 318 319 318 317 318 319 321 321 320 321 321 321 321 321 321 321 322 322 323 323 324 325 326 328 328
357 357 359 358 358 358 358 358 357 357 357 354 353 353 356 359 362 362 362 361 361 360 360 359 356 354 351 351 349 346 346 344 343 343 343 343 343 342 342 340 340 341 341 341 341 342 343 345 346 346 345 346 348 348 347 346 347 350 346 330 320 320 320 321 321 320 321 321 321 322 321 322 321 321 321 322 322 322 323 324 325 325 326 327 327
356 357 359 358 357 358 357 358 358 357 357 355 353 354 354 358 360 360 361 362 361 360 360 359 358 357 355 354 353 350 347 344 344 343 343 344 344 343 342 341 341 342 342 341 341 341 342 343 345 345 345 345 347 348 348 347 346 347 345 335 327 326 324 323 322 322 322 322 322 323 323 322 322 322 322 322 323 324 324 324 325 326 327 327 327
355 356 358 358 357 358 357 357 357 357 358 357 356 354 353 354 355 357 361 364 363 361 360 359 359 360 358 356 356 352 349 347 345 345 345 345 345 344 342 343 341 342 342 343 343 342 342 343 343 344 345 346 346 347 348 348 346 342 339 334 331 330 328 327 325 324 323 323 323 324 323 324 323 322 322 323 323 324 324 325 325 326 326 327 327
355 356 357 357 357 358 357 357 358 358 358 358 357 355 353 353 354 356 359 362 363 362 362 360 360 360 359 357 356 352 349 348 347 346 346 346 347 346 344 343 343 343 343 344 344 343 342 343 343 342 344 345 346 347 347 348 347 341 335 335 334 332 331 330 329 328 326 325 324 324 324 325 325 325 324 324 324 324 325 325 325 326 326 327 327
356 356 357 357 357 359 359 358 358 359 358 358 357 356 356 355 355 356 356 358 361 362 363 361 360 361 359 356 355 350 348 348 347 346 345 347 348 348 345 344 345 344 344 345 344 343 342 342 342 342 343 345 346 348 348 346 346 343 337 335 336 334 334 333 332 331 330 329 327 326 326 326 326 326 326 326 326 326 325 326 326 326 327 327 328
356 356 356 355 356 359 360 359 359 358 358 357 357 357 356 356 356 356 355 356 357 359 361 361 360 360 360 358 356 352 349 348 348 347 346 347 347 347 347 348 346 344 345 347 349 348 343 342 342 342 344 346 346 349 350 347 346 344 339 337 338 337 335 335 334 334 333 332 330 329 328 327 327 327 327 327 327 327 326 327 327 327 328 328 328
355 356 356 355 356 359 360 359 359 358 357 356 356 357 357 357 357 357 357 355 356 358 359 360 360 360 360 360 358 356 353 351 350 349 348 349 348 348 349 350 349 347 345 346 349 349 346 343 343 343 346 348 347 349 349 346 346 344 340 338 339 339 336 336 336 335 335 335 333 333 331 330 329 329 328 328 328 328 328 328 328 328 328 328 328
356 358 358 357 358 359 359 358 358 358 358 357 357 357 358 358 358 359 358 356 356 358 358 359 359 359 359 359 360 358 356 355 353 352 351 351 351 350 350 351 350 350 349 347 347 348 346 343 343 345 347 347 349 348 343 342 345 343 339 337 338 339 337 336 336 336 336 336 335 335 334 333 332 331 330 330 330 330 330 329 329 329 329 329 328
355 357 358 359 359 358 358 357 357 358 358 358 357 357 358 358 358 360 359 356 357 358 357 358 358 358 358 359 359 359 358 357 356 355 355 355 355 352 350 350 350 350 350 349 350 348 346 344 344 350 347 343 345 345 342 343 343 340 339 340 340 340 339 337 336 337 336 337 336 336 336 335 335 334 333 333 332 332 332 332 331 331 330 330 330
354 356 358 359 359 358 357 357 358 358 358 357 358 358 358 358 358 359 360 358 359 359 358 358 357 358 358 357 358 359 359 358 357 356 356 357 356 354 351 350 350 350 350 351 351 349 347 345 344 349 350 345 344 346 347 349 346 340 339 341 342 343 341 337 338 337 337 337 337 337 337 336 336 336 335 335 334 334 334 334 334 333 333 332 332
355 356 357 358 359 359 358 357 357 358 359 357 358 359 358 357 357 357 358 360 361 361 359 358 357 357 358 357 358 358 358 358 358 357 357 358 358 356 354 353 351 351 351 351 351 350 349 347 345 347 350 350 349 348 348 349 346 340 339 341 342 343 342 339 340 338 338 338 337 337 337 337 337 337 336 337 336 336 336 335 335 335 335 335 333
356 357 358 357 357 359 358 357 356 356 358 357 357 358 359 358 357 356 357 359 361 361 359 357 356 357 358 359 358 359 359 358 358 358 358 359 359 358 357 356 355 354 352 351 352 351 349 347 346 347 347 347 349 349 348 348 348 344 342 343 342 342 343 343 343 343 340 339 339 338 339 338 338 338 337 338 337 337 337 337 336 336 336 336 335
356 358 359 358 357 358 358 357 357 355 357 358 357 357 359 359 359 358 358 359 360 361 360 359 357 357 359 361 360 360 360 359 358 358 358 359 360 359 358 358 356 356 355 353 353 353 352 350 348 348 348 347 348 349 350 350 350 350 349 348 346 345 346 347 348 347 346 343 341 341 341 341 341 340 340 339 339 338 338 338 337 336 336 336 336
357 358 359 358 357 357 358 358 358 358 358 360 358 356 358 360 359 358 358 359 361 360 361 361 361 359 360 362 361 360 360 360 360 358 357 357 358 358 359 358 358 357 356 356 355 354 354 353 352 351 351 352 351 351 351 351 350 351 351 351 351 351 351 350 350 349 348 346 343 341 341 341 341 341 341 342 341 341 339 339 338 337 337 337 336
358 358 357 358 358 358 359 359 359 360 359 360 360 357 358 360 361 358 358 359 361 361 361 361 361 360 361 362 361 360 359 361 362 360 357 356 356 357 357 357 357 357 357 357 357 356 355 354 354 353 352 352 353 354 354 353 352 352 351 351 351 351 350 351 352 350 349 347 344 342 340 340 340 340 340 341 341 342 341 340 339 338 338 337 337
358 358 358 357 358 359 360 360 360 360 361 361 360 358 359 359 361 359 359 360 361 361 360 360 361 360 360 362 362 360 358 361 363 362 360 359 359 358 358 358 358 358 358 358 358 358 357 355 355 354 353 354 354 354 354 354 354 353 353 352 351 351 350 350 351 350 350 348 345 344 343 342 342 341 340 340 340 340 341 340 340 340 339 339 337
357 358 359 358 359 360 361 360 360 361 361 361 360 358 357 359 359 359 359 360 361 361 360 360 360 360 360 361 360 360 360 362 363 363 362 362 361 360 360 359 360 360 360 359 360 359 359 358 358 357 357 357 356 356 356 356 355 354 354 354 354 354 353 352 351 350 349 348 347 346 346 345 345 344 343 342 341 341 340 339 340 339 339 339 338
357 358 359 359 358 360 361 361 361 361 362 361 360 358 356 357 359 358 358 359 361 361 361 360 360 360 361 361 361 361 362 362 363 362 362 363 363 363 361 361 360 361 361 362 361 361 360 360 360 360 359 359 359 358 358 357 357 356 355 355 354 354 354 353 352 351 350 350 349 348 348 347 347 346 345 344 343 343 341 340 340 339 339 339 339
357 356 357 359 359 360 361 362 360 361 362 362 361 360 358 357 358 359 358 358 359 360 360 359 358 358 360 361 361 361 361 362 362 361 362 363 364 364 364 363 363 362 362 362 361 360 359 359 359 359 360 360 359 359 359 358 357 357 357 356 355 354 354 353 353 352 351 351 351 350 348 348 347 347 347 345 345 344 344 343 341 340 339 338 338
358 356 356 358 360 360 361 361 361 361 362 362 362 362 360 358 357 359 359 358 357 358 359 359 358 357 358 359 360 361 361 362 363 362 362 363 364 364 364 364 365 364 362 361 361 359 358 358 358 359 358 359 358 359 359 358 358 359 358 357 356 354 353 353 352 352 351 350 350 350 349 349 348 348 348 347 346 347 347 346 345 343 342 340 339
358 356 356 356 359 360 361 361 361 361 361 362 362 361 362 361 358 357 359 359 358 357 358 359 359 359 359 357 356 356 358 360 361 360 359 359 360 362 363 365 365 364 362 360 360 359 359 358 357 357 358 357 357 357 357 357 358 359 359 358 357 355 354 353 351 350 350 349 349 349 349 349 348 348 348 349 349 348 348 348 347 347 345 344 343
359 358 358 357 358 359 360 361 361 361 360 361 361 359 359 359 360 358 358 359 359 359 359 360 359 359 358 357 355 355 356 357 356 354 352 352 351 352 356 359 362 362 362 361 360 360 360 359 357 357 357 357 356 356 356 357 357 358 358 357 356 354 352 351 350 349 349 348 348 349 349 349 348 348 348 349 348 348 348 349 349 348 347 347 347
360 359 359 359 358 358 360 361 361 361 361 360 359 357 354 353 356 360 360 359 361 361 361 360 360 358 357 357 357 357 359 358 355 352 350 349 348 348 348 350 354 356 359 361 361 361 360 359 358 356 356 356 356 355 355 356 356 356 356 355 354 352 351 350 351 351 350 349 348 349 349 350 349 349 348 349 349 348 348 349 349 348 347 347 347
361 361 361 360 360 358 360 360 360 361 361 360 358 356 352 348 348 355 359 360 360 361 362 362 361 360 358 359 358 359 361 361 359 360 358 354 352 350 350 349 350 351 354 356 358 360 360 360 359 357 357 357 358 357 357 358 355 351 351 353 353 351 350 350 350 351 351 349 348 349 350 350 350 349 349 349 349 348 348 348 349 347 347 347 346
362 362 362 361 361 361 360 360 360 361 360 360 359 356 353 349 344 347 354 357 359 360 361 361 362 362 361 361 360 360 360 361 360 361 361 359 357 356 354 354 355 354 354 354 355 356 358 359 359 358 358 359 359 360 359 360 357 348 346 351 354 351 349 350 350 350 350 349 349 350 350 350 350 350 350 350 350 350 349 349 349 348 347 346 346
362 362 362 362 362 362 361 360 360 360 360 360 359 358 354 351 347 346 350 355 358 358 360 362 362 363 363 363 363 363 362 362 362 362 363 363 362 362 361 361 360 360 359 359 358 357 357 357 357 358 359 360 360 361 359 360 358 350 345 350 354 351 349 349 350 349 350 349 349 349 349 349 350 350 351 351 351 351 351 350 350 348 347 346 346
363 363 362 362 362 363 362 362 361 361 361 359 359 359 356 354 351 350 351 354 357 358 359 361 362 363 364 364 364 364 364 364 363 363 364 365 364 365 365 364 363 363 363 361 361 359 358 358 357 357 358 359 360 360 359 358 356 352 351 352 352 351 349 349 349 348 350 350 349 348 349 350 350 352 351 352 352 352 352 351 349 348 348 347 346
362 363 363 363 363 363 362 362 361 361 361 359 359 358 357 355 354 353 352 354 356 358 359 360 362 363 364 364 364 364 364 365 363 361 360 361 362 364 364 363 363 363 363 361 360 359 358 358 358 358 358 359 359 359 359 357 352 350 352 351 350 349 348 348 349 349 350 351 351 350 350 350 351 351 352 351 351 351 351 350 350 349 348 348 347
362 363 363 363 362 362 362 362 362 362 361 360 359 357 356 356 355 354 354 355 357 359 359 360 362 362 364 364 364 364 364 364 363 361 359 358 360 361 362 362 363 363 361 360 359 359 358 358 358 359 359 359 359 358 359 358 351 348 349 349 350 351 349 347 350 350 351 351 351 351 351 351 350 351 350 349 348 349 349 349 349 349 350 349 348
362 362 363 363 363 362 362 363 363 362 362 361 359 358 356 355 354 354 355 357 358 359 360 360 361 362 363 362 361 363 365 364 363 362 360 359 360 361 361 361 362 361 361 359 358 358 359 359 360 361 360 361 360 359 359 358 353 352 351 350 350 351 349 349 349 349 350 350 350 349 350 350 349 348 348 347 346 346 345 346 347 348 349 349 348
362 362 362 362 363 363 362 362 362 362 362 362 361 358 357 355 354 354 356 358 359 360 360 361 362 362 362 361 360 360 361 361 361 360 359 358 360 361 361 360 360 360 359 359 360 359 361 362 362 361 362 361 361 360 359 358 355 354 352 351 352 350 349 350 350 349 348 348 348 348 348 347 346 346 346 346 345 344 343 344 345 346 346 347 346
Wind_Speed
6 5 5 5 5 5 5 5 6 5 5 5 5 5 5 5 5 5 5 5 5 5 5 5 5 6 6 4 4 4 5 5 5 5 4 4 3 2 2 2 2 3 2 2 3 3 3 4 4 4 5 5 5 5 5 4 4 4 4 3 2 2 2 1 2 2 3 3 4 4 5 6 6 6 7 7 8 8 8 8 8 8 9 9 10
6 5 5 5 4 4 5 5 5 5 4 5 5 4 4 4 4 4 4 4 4 4 4 5 5 6 6 5 4 4 5 4 4 5 4 4 4 2 2 2 1 2 2 1 1 2 2 2 2 3 3 3 3 3 3 3 3 3 2 2 1 1 2 2 2 3 3 4 5 5 6 6 7 7 8 8 8 8 8 8 8 8 8 9 10
5 5 4 4 4 4 4 4 4 4 4 5 4 4 4 3 3 3 3 3 3 3 3 3 3 5 6 5 4 3 4 4 4 4 5 4 4 3 1 1 1 1 1 1 1 1 1 1 1 1 1 1 2 1 1 1 1 1 0 0 1 2 2 3 3 4 4 5 5 6 6 7 7 8 8 9 8 8 8 7 8 8 9 9 10
4 4 4 4 4 4 4 3 4 4 4 4 4 4 3 3 3 2 2 2 1 2 2 2 2 4 5 5 5 3 3 4 4 4 5 4 4 4 2 1 0 0 1 1 1 1 1 1 0 1 1 1 1 1 1 1 1 2 2 2 3 3 4 4 4 5 5 6 6 6 7 7 8 8 8 8 8 8 8 7 8 8 9 10 10
4 4 4 3 3 3 3 3 3 3 3 4 4 3 3 3 4 3 2 1 1 1 1 1 2 3 4 5 5 3 2 3 4 4 4 5 4 3 3 2 1 0 0 2 2 1 2 1 1 2 3 1 2 3 3 3 3 4 4 4 5 5 5 6 6 6 6 7 8 8 7 8 8 8 8 8 7 7 7 7 8 9 9 10 10
3 3 3 3 3 3 3 3 3 3 3 3 3 3 2 2 3 3 3 1 1 1 0 0 1 2 3 4 4 4 2 3 4 4 4 4 4 3 3 3 2 1 0 1 2 2 2 2 2 3 3 2 3 3 4 4 4 5 5 6 6 6 6 7 7 6 7 7 7 8 7 7 7 8 8 8 7 7 7 8 8 9 9 9 9
4 3 3 3 3 3 3 3 3 3 3 3 2 3 3 2 2 3 3 2 1 1 1 1 1 1 3 2 3 4 3 3 4 4 4 4 4 4 3 2 2 1 0 0 1 2 2 3 3 4 3 3 3 3 4 4 4 5 5 6 6 6 6 7 7 6 7 7 7 7 7 6 6 7 8 8 7 7 7 8 8 8 7 7 7
4 3 3 2 2 3 3 3 2 2 3 3 3 3 3 3 2 3 3 3 1 1 0 1 2 1 1 2 3 3 2 3 4 3 4 4 4 4 3 2 2 1 1 1 1 2 2 2 4 4 4 3 4 4 5 5 4 5 5 5 6 6 6 6 6 6 6 6 6 6 6 6 6 7 7 7 7 7 7 7 8 7 6 6 6
5 4 3 2 2 2 2 3 3 2 3 2 2 3 2 3 3 3 3 2 1 1 1 1 2 2 1 2 3 3 2 3 4 3 4 4 4 4 4 3 2 1 1 1 2 2 2 2 3 4 4 4 4 5 5 5 4 5 5 5 5 6 6 6 6 6 6 6 6 5 6 6 6 7 6 6 6 6 7 7 7 5 4 5 6
5 4 3 2 2 2 2 3 3 2 2 2 2 2 2 2 4 3 2 1 1 1 1 1 2 2 1 2 3 2 3 3 4 3 4 4 4 4 4 3 3 2 0 1 1 2 2 2 2 3 4 4 4 4 4 4 5 5 5 5 5 5 5 5 5 5 5 5 5 5 6 6 7 7 7 7 6 6 7 7 5 3 3 4 5
5 5 4 3 3 3 3 3 3 2 2 2 2 2 2 2 3 4 2 1 1 2 1 0 2 2 1 2 2 3 4 3 4 3 3 4 4 4 4 4 3 3 2 1 0 1 1 1 1 2 4 4 4 4 4 4 4 4 4 4 5 5 5 5 5 5 5 5 5 6 6 7 7 7 7 7 6 5 4 3 2 2 3 4 4
6 5 5 3 3 3 3 3 3 2 2 1 1 1 2 2 3 3 2 2 1 1 1 1 2 2 1 1 2 3 4 3 3 4 3 4 4 3 3 4 4 3 3 2 1 1 0 1 1 2 3 4 4 4 5 5 5 4 4 4 5 5 5 5 4 5 5 5 6 7 7 6 6 6 6 5 3 2 2 2 3 4 4 3 3
7 6 6 5 4 3 4 4 4 3 2 1 1 1 2 2 2 2 2 1 1 1 1 1 1 3 3 3 3 2 3 3 3 4 4 4 4 3 3 3 3 3 3 2 1 1 0 0 1 1 2 3 3 4 5 5 6 5 5 5 5 5 5 5 5 5 6 5 5 6 6 5 5 5 4 3 1 1 2 3 3 4 3 3 2
8 8 7 6 5 4 4 5 4 3 3 2 1 1 1 1 1 1 2 2 0 0 2 2 2 3 3 3 4 3 3 3 3 4 4 3 3 2 2 2 3 3 2 2 1 0 1 0 1 1 2 2 2 3 3 4 5 5 5 6 6 5 4 3 4 5 5 5 5 6 5 4 4 3 2 1 1 2 2 2 2 3 2 2 2
8 8 8 7 6 5 5 5 5 4 4 3 3 2 2 1 1 1 1 2 2 1 3 3 2 2 2 2 3 3 3 4 4 4 4 3 2 2 2 1 2 2 1 1 1 1 1 1 1 1 2 2 2 2 2 3 5 6 5 5 6 5 4 4 4 4 5 5 5 4 4 3 3 2 1 1 1 2 2 2 2 2 2 2 2
9 9 9 8 7 6 5 5 5 5 4 3 3 3 2 2 2 1 2 1 3 2 2 2 2 1 1 1 2 2 2 4 5 5 5 4 3 2 2 1 1 2 1 1 1 1 1 2 2 2 2 2 2 3 3 3 5 6 5 5 5 4 4 4 4 5 4 5 5 4 3 3 3 2 2 2 2 2 2 2 2 2 2 1 1
10 10 9 9 8 7 6 5 5 5 4 4 3 3 2 2 2 2 2 1 1 1 1 1 3 2 1 0 1 1 1 2 3 3 3 4 3 3 2 2 3 2 2 2 2 2 2 2 3 3 3 3 3 3 3 3 4 4 4 5 5 4 4 4 5 5 5 5 6 4 3 4 3 3 3 3 3 3 3 2 2 2 1 1 1
11 10 10 9 9 8 7 6 5 5 5 4 3 3 3 3 2 2 2 1 1 1 1 1 3 3 3 2 1 1 1 1 1 1 2 3 3 4 4 3 3 3 3 4 4 4 3 3 3 3 3 3 3 3 3 3 3 3 4 6 7 5 4 4 4 5 5 5 5 4 4 4 4 4 4 4 4 4 4 3 3 2 2 2 2
12 11 11 10 9 9 8 7 6 5 5 5 5 5 4 3 3 2 2 2 1 2 1 1 2 3 4 3 2 2 1 1 2 0 2 2 2 4 4 4 4 4 4 4 5 4 4 4 4 3 4 3 4 3 3 3 4 4 4 5 6 5 4 4 4 4 5 5 5 5 5 5 5 5 5 5 5 5 4 4 4 3 3 3 4
13 11 11 11 10 9 8 7 6 6 6 6 6 6 4 3 3 3 2 2 3 3 2 1 2 3 4 4 3 2 2 2 2 2 2 1 2 3 3 2 3 3 3 4 4 4 4 5 5 4 4 4 4 4 3 3 4 4 5 5 4 4 4 4 4 4 5 5 6 6 6 6 6 6 6 6 6 6 6 6 5 5 5 5 5
14 12 12 12 11 10 9 8 7 6 6 6 7 7 6 5 5 4 4 4 4 3 3 3 3 3 4 4 4 3 4 4 3 3 3 2 1 2 2 2 3 2 2 3 3 3 4 5 5 6 6 5 5 5 4 4 4 5 6 6 4 4 4 4 5 5 7 7 7 8 7 7 7 7 7 7 7 8 8 7 7 7 7 7 6
14 14 13 13 12 11 10 9 9 8 7 6 6 7 7 7 7 6 5 5 4 4 5 5 4 4 4 5 5 4 4 4 5 5 4 3 3 4 4 3 2 1 1 2 3 3 4 4 5 6 6 6 6 6 6 6 5 5 7 7 6 6 6 6 7 7 8 9 9 9 9 9 9 9 9 9 9 9 10 10 9 9 9 9 8
13 14 14 14 13 12 11 10 9 9 8 7 7 7 8 8 8 7 7 7 6 5 6 6 5 5 5 6 6 5 5 4 4 4 4 4 4 5 4 3 3 2 1 2 4 4 5 5 7 7 6 7 7 7 7 7 7 7 8 8 7 7 8 8 9 9 10 11 11 11 11 11 11 11 11 11 11 11 12 12 12 12 11 11 11
14 13 14 14 13 13 13 12 11 10 10 9 8 7 7 8 8 8 8 8 7 7 6 6 6 6 6 6 6 6 5 5 5 5 5 4 3 4 5 4 4 4 3 3 4 4 5 6 7 7 7 7 8 8 8 9 9 10 9 9 9 9 9 10 10 11 12 12 13 13 13 13 13 13 13 13 13 14 14 14 14 14 14 13 13
16 15 14 13 13 14 14 13 12 12 11 10 9 8 8 8 8 9 9 8 8 8 7 7 7 7 6 6 6 5 5 6 6 6 5 4 4 5 6 5 5 5 3 4 5 5 5 6 6 6 7 7 8 9 10 9 10 11 11 11 12 11 11 12 12 12 12 13 13 14 14 15 15 16 16 16 16 16 16 16 16 16 16 16 16
17 16 15 14 14 14 14 14 13 13 12 12 11 10 9 9 9 9 10 9 9 9 9 8 7 7 7 6 6 5 5 6 6 6 6 5 5 5 5 5 6 6 5 4 4 5 4 4 5 5 6 7 7 8 9 9 10 13 13 12 14 15 14 14 14 14 14 14 14 15 16 17 17 18 18 18 18 18 18 18 18 18 18 18 18
16 16 15 15 14 14 14 14 14 14 14 13 12 11 11 10 9 10 10 10 10 10 9 9 8 8 7 7 7 6 6 6 6 6 6 6 5 5 5 5 5 6 5 4 4 5 4 3 4 4 4 5 6 7 9 8 10 14 15 14 16 18 17 17 17 17 16 16 16 17 18 19 19 20 20 20 21 21 21 21 21 21 21 21 21
15 15 15 15 15 14 14 14 14 14 14 14 13 12 12 11 11 10 10 10 10 11 10 9 9 8 8 8 8 7 6 6 6 6 5 5 5 5 5 5 4 4 4 4 4 3 2 3 3 4 3 3 4 5 5 5 8 12 14 14 16 19 20 19 19 19 19 19 19 20 20 21 22 22 22 23 23 23 23 23 23 23 23 23 24
16 15 15 15 15 15 14 14 14 14 15 15 14 13 13 12 12 11 11 10 10 11 11 10 9 8 8 8 8 8 7 7 7 6 5 5 5 6 6 6 5 4 4 4 4 4 3 4 3 4 3 4 4 4 4 5 7 9 10 13 14 17 19 19 19 19 20 21 22 23 24 24 24 24 25 25 25 25 26 25 25 25 25 26 26
18 16 15 15 15 15 15 14 14 14 15 14 14 14 14 13 12 12 11 11 11 11 11 11 10 9 9 8 8 8 7 7 7 7 6 6 6 6 6 6 6 6 5 5 5 6 5 5 3 2 3 5 5 6 6 7 10 12 11 13 14 15 17 18 18 19 20 21 24 25 26 27 27 27 28 28 29 28 28 28 28 28 28 28 28
19 18 16 16 15 15 15 15 15 15 15 15 14 14 14 13 13 13 12 11 12 12 11 11 11 10 10 10 9 9 8 8 8 7 7 7 7 7 7 7 7 7 7 6 6 6 5 5 5 4 4 6 7 8 9 9 13 16 15 14 16 16 17 18 19 19 19 21 23 24 26 27 28 30 30 31 32 32 32 32 31 31 31 30 30
19 19 19 18 16 15 15 16 16 16 15 15 15 14 14 14 13 13 12 12 12 12 12 12 11 11 11 11 11 10 9 9 9 8 8 9 8 8 7 7 8 8 8 8 8 10 9 9 10 9 8 9 10 11 12 12 13 17 18 17 18 19 19 19 20 21 21 21 21 23 24 25 27 29 30 32 33 34 35 35 35 35 34 33 33
19 19 19 19 18 17 16 15 16 16 15 15 15 14 14 14 14 14 13 13 13 12 12 12 12 11 11 12 12 11 11 10 10 9 9 9 9 9 9 9 9 9 9 10 10 12 12 10 11 11 11 10 11 12 13 13 12 13 16 18 19 20 19 18 18 19 22 23 23 23 24 25 27 28 29 30 31 33 35 36 37 38 38 37 36
20 20 20 19 19 18 17 16 16 16 15 15 15 14 15 14 15 15 14 14 15 14 13 12 13 12 12 13 12 12 12 12 11 11 10 10 10 10 10 10 9 9 10 10 10 12 12 11 10 11 11 11 12 12 12 12 12 12 14 16 17 17 17 17 16 17 20 23 25 25 25 25 27 28 29 30 31 32 33 34 36 38 39 40 40
20 21 20 19 19 20 19 18 17 17 16 16 15 15 15 15 15 15 15 15 15 15 14 14 13 13 13 13 13 12 12 12 12 12 11 11 11 11 11 10 10 10 10 11 12 12 13 13 12 12 12 12 12 12 12 13 14 14 15 16 16 16 17 17 17 17 19 22 25 25 24 24 25 27 29 30 31 32 33 34 35 37 38 39 41
21 21 21 20 20 20 20 19 19 18 18 17 17 16 16 16 15 15 15 15 16 16 15 15 14 13 13 14 14 13 12 12 13 12 12 12 12 12 12 12 12 12 11 12 13 13 13 14 13 13 14 14 14 13 13 13 14 14 15 16 17 17 17 16 16 18 20 23 25 25 25 25 26 27 28 29 30 32 33 35 36 37 37 38 39
21 21 21 21 21 21 21 21 20 20 19 19 18 18 17 16 16 16 15 16 16 16 16 16 15 14 14 15 14 13 12 13 13 13 12 13 12 12 12 11 11 11 11 12 13 13 13 14 14 13 13 14 14 13 12 13 13 13 15 16 16 16 17 17 17 18 19 22 25 26 27 26 26 26 27 28 28 30 32 34 36 37 38 38 38
23 22 21 21 22 22 22 21 21 21 20 20 20 19 18 17 16 16 16 16 16 17 17 16 16 15 15 16 15 14 14 14 14 13 13 12 13 13 12 12 12 11 11 11 12 13 14 15 14 14 13 14 14 13 11 11 11 12 14 15 15 16 17 18 19 20 20 21 24 26 28 28 28 28 28 28 27 27 30 32 34 36 37 37 37
24 23 22 22 22 22 22 22 21 20 20 20 20 20 20 18 17 17 17 17 17 17 17 17 16 16 16 16 16 16 16 16 15 14 13 13 13 13 13 13 12 11 11 11 12 13 14 14 14 14 13 13 13 12 10 10 12 13 14 14 14 15 16 19 22 24 24 25 27 29 27 26 28 30 31 31 29 28 29 30 32 33 35 35 35
24 24 23 22 21 21 22 22 21 21 20 20 20 20 20 19 19 18 18 18 18 17 17 17 16 16 17 17 17 17 17 17 17 16 14 13 13 13 13 12 12 12 11 11 12 13 13 14 13 13 13 13 13 12 11 12 12 13 13 13 14 17 20 21 24 25 27 29 32 32 26 24 26 28 29 30 30 30 31 32 32 33 33 34 34
23 24 24 23 22 21 21 21 21 21 21 21 21 21 21 20 20 19 19 19 19 18 17 17 16 16 17 17 18 18 18 19 19 19 17 16 14 13 12 11 12 12 12 12 12 12 13 13 13 13 14 14 14 13 12 11 12 13 13 13 15 20 23 26 29 30 29 30 33 32 27 26 28 29 27 26 27 31 35 36 36 35 35 34 33
23 23 23 23 22 21 21 21 21 22 22 22 23 25 24 22 20 19 19 19 19 18 17 17 17 17 17 17 18 18 20 21 23 25 24 22 21 19 17 15 14 13 13 14 14 14 13 13 13 13 14 15 15 13 12 12 11 10 10 12 18 23 23 27 32 30 24 22 25 27 27 25 27 31 31 28 28 31 33 33 34 36 36 35 33
23 22 22 23 23 22 21 21 21 22 22 22 25 27 28 25 22 19 18 19 19 18 17 17 18 18 17 17 17 18 19 22 24 25 26 25 24 23 22 20 19 19 18 17 16 15 15 15 15 14 15 16 16 15 15 12 6 5 9 14 20 24 25 25 23 19 18 18 17 21 28 25 22 28 33 30 30 34 35 33 34 36 36 37 36
23 22 22 23 23 22 21 21 21 22 21 23 26 28 29 29 27 22 19 18 18 18 17 18 18 17 17 17 17 16 17 19 20 20 20 22 22 21 21 21 21 22 22 22 21 19 18 17 17 17 17 17 18 17 16 11 5 3 10 19 23 28 31 28 22 21 28 29 21 21 32 31 22 25 33 32 29 32 35 35 34 35 36 37 37
23 23 23 22 22 22 22 21 21 21 21 22 26 28 29 29 29 27 23 19 18 18 18 18 18 18 17 17 17 17 17 18 18 18 18 19 20 21 21 20 21 22 22 23 25 25 24 22 20 19 18 17 19 18 16 16 10 3 3 19 29 31 32 28 27 32 36 36 28 23 31 34 25 23 33 35 29 27 30 32 33 34 34 34 35
23 23 23 23 22 22 22 22 22 21 21 22 24 27 29 28 28 29 27 22 20 19 19 18 18 18 18 17 17 18 17 17 17 17 17 17 17 17 17 18 19 19 18 18 19 20 22 24 24 23 20 19 21 21 19 20 13 4 4 21 31 30 29 29 31 35 37 38 32 24 27 34 27 22 30 33 26 24 27 30 33 34 34 33 32
24 23 23 23 23 22 22 22 22 22 22 23 25 26 27 28 27 28 28 25 21 20 20 20 20 19 19 19 19 19 18 17 18 18 17 15 14 14 15 16 16 16 16 17 17 17 17 19 19 19 18 17 18 20 18 15 8 2 10 26 32 30 31 31 28 27 30 36 30 20 24 30 24 21 28 29 24 24 26 27 30 33 34 33 32
23 22 22 22 23 23 23 23 23 23 23 24 26 27 28 27 26 26 28 26 23 22 21 21 21 21 20 20 20 20 19 19 20 21 20 18 16 16 16 16 16 16 16 17 17 17 17 18 18 17 18 18 18 18 17 14 9 9 17 27 31 31 29 25 23 21 21 25 22 17 21 27 22 20 27 28 26 27 27 26 28 29 30 32 32
22 22 22 22 23 23 24 24 24 24 23 24 27 29 29 28 27 27 27 24 22 22 22 22 21 21 21 22 22 21 20 20 21 22 22 21 19 18 18 18 17 17 17 17 17 18 19 20 20 19 18 18 19 17 16 16 15 14 19 24 25 25 22 18 19 20 17 18 18 16 19 24 23 21 25 28 29 29 27 26 25 25 26 28 28
23 22 22 22 22 23 24 24 24 24 23 24 27 29 30 30 29 28 26 23 22 22 22 22 22 22 23 24 25 24 21 21 21 21 21 22 20 18 17 18 18 17 17 16 16 17 17 16 15 15 15 15 16 13 13 17 17 15 18 20 17 17 17 16 18 20 19 18 18 17 19 23 23 22 24 25 27 28 26 23 22 21 22 24 25
24 23 22 22 21 22 22 23 25 25 24 24 26 29 30 30 31 30 26 22 21 22 21 21 21 21 22 24 27 29 27 25 24 23 23 23 20 18 17 17 18 18 17 16 16 15 15 13 13 14 14 14 14 13 14 15 12 10 12 15 14 14 16 16 18 18 16 14 12 12 17 22 23 22 22 20 20 23 24 22 21 20 21 23 25
Wind_Direction
118 111 105 102 98 97 91 87 86 86 88 89 88 87 86 84 85 85 84 82 82 81 78 80 82 81 76 76 87 86 82 79 75 80 79 93 104 59 66 98 89 92 86 86 92 83 77 74 70 72 67 68 72 76 80 81 83 88 91 88 80 66 45 26 342 324 328 327 326 326 328 330 331 334 336 339 341 341 343 347 350 352 351 353 354
114 107 103 100 98 97 92 92 91 91 94 96 95 92 89 81 76 79 77 76 78 77 72 73 77 79 75 73 90 95 92 87 81 85 84 91 108 80 45 89 99 91 97 107 112 94 73 72 68 77 81 76 73 69 71 75 76 74 72 63 43 10 342 329 315 309 312 315 318 321 323 325 328 331 332 333 336 337 338 345 347 345 349 352 352
111 108 108 104 103 101 94 97 95 97 99 102 107 98 95 86 67 65 63 61 70 73 67 67 68 73 75 72 77 90 94 94 91 90 89 90 106 111 74 80 116 112 140 186 186 156 93 82 55 49 136 122 118 111 92 88 85 74 50 347 304 296 297 293 289 292 296 303 310 312 316 319 323 330 330 329 334 336 337 344 346 346 350 351 351
112 109 114 113 110 109 104 103 99 107 109 108 116 107 106 110 87 62 44 32 43 69 65 66 64 61 72 70 65 75 92 96 96 90 90 90 101 122 123 88 95 150 209 236 235 210 197 179 206 285 280 216 197 197 202 222 227 237 250 258 264 268 274 279 282 290 296 300 303 305 310 316 321 328 330 330 333 337 339 345 348 349 350 350 352
120 117 126 125 116 112 112 118 114 117 119 120 126 126 129 122 113 101 72 36 17 56 62 88 75 60 64 63 59 62 86 97 93 88 90 94 96 115 134 149 176 161 312 261 253 222 222 222 221 262 278 256 236 246 244 245 251 253 260 261 260 265 272 281 286 293 299 298 302 307 312 317 320 325 329 331 332 336 339 342 345 347 349 351 355
136 132 137 135 130 128 123 123 128 127 126 132 132 130 127 97 100 103 91 86 70 19 290 171 112 71 61 52 57 60 82 98 87 85 82 86 92 101 126 148 169 179 17 279 260 250 253 256 244 252 265 260 246 253 252 248 253 255 262 267 267 271 276 282 286 295 301 301 308 315 318 320 320 324 329 331 331 334 336 338 343 347 351 356 4
159 152 149 154 145 138 137 126 132 139 129 135 131 117 113 87 70 77 72 60 49 318 259 199 200 95 68 53 60 64 88 98 80 82 81 81 90 95 112 127 148 179 126 215 260 265 267 260 254 256 253 254 251 250 250 246 251 257 261 266 270 274 279 285 291 300 305 306 311 316 319 318 316 321 328 331 331 334 336 340 345 351 357 4 12
178 174 163 170 157 139 146 136 140 145 126 135 135 116 114 105 77 65 69 54 16 320 252 194 202 164 100 80 67 66 94 100 86 84 78 77 86 92 102 109 127 171 172 198 239 248 267 250 248 262 258 247 248 248 248 248 256 265 267 270 275 280 287 294 300 305 308 310 308 312 318 315 315 321 328 331 332 335 340 345 349 357 5 10 14
191 191 180 175 168 154 151 147 155 147 129 141 133 118 120 112 99 78 77 77 347 345 29 175 187 184 130 84 55 65 102 102 97 94 84 83 89 95 99 105 115 133 192 208 217 227 274 283 240 254 258 244 244 248 248 253 262 269 275 280 284 290 295 302 309 308 309 310 306 309 312 313 318 322 326 328 330 335 341 343 344 355 9 14 21
201 201 194 183 176 170 152 149 160 150 141 151 127 113 107 100 104 95 76 67 357 1 25 132 176 180 113 64 45 83 116 115 109 106 104 103 98 100 99 98 101 95 147 226 208 217 277 312 262 243 249 242 240 250 253 255 259 265 275 279 282 289 293 299 307 308 310 311 309 307 308 313 315 313 315 317 318 325 334 334 334 352 25 32 42
204 207 202 188 177 171 162 162 166 162 160 155 131 124 117 85 90 91 74 54 9 346 350 115 179 180 132 65 57 105 124 127 122 122 123 114 108 115 111 102 98 92 91 114 164 204 247 272 265 230 243 259 255 249 254 256 255 258 265 270 276 283 287 292 299 304 310 309 307 304 304 307 304 303 312 317 317 319 330 340 5 78 75 67 69
205 208 205 194 182 167 167 175 175 175 180 169 143 122 124 110 92 89 82 66 23 330 277 218 175 176 179 130 95 123 139 138 138 148 147 131 126 128 118 108 100 93 91 97 116 114 175 235 251 228 243 270 271 259 255 256 262 265 266 267 272 278 284 288 292 296 301 302 301 300 303 307 306 310 318 326 332 347 22 60 95 102 98 90 83
210 211 205 200 190 175 175 180 185 187 188 194 165 102 119 124 126 123 122 99 22 345 222 229 182 177 184 163 138 141 153 153 164 174 169 154 147 140 124 116 107 101 105 97 89 101 112 236 255 251 246 258 271 274 266 261 266 270 268 270 272 276 280 288 291 292 296 299 296 297 308 318 322 325 327 338 15 79 96 103 108 110 109 100 85
214 214 208 204 196 189 186 186 191 192 194 211 204 176 166 158 177 160 153 169 125 27 186 210 205 171 166 161 158 165 174 189 199 197 189 170 159 153 141 133 122 113 110 104 92 143 156 169 218 256 261 260 271 277 276 269 267 268 267 273 278 276 274 285 295 292 291 289 283 290 305 311 313 322 328 344 120 123 119 124 121 121 118 111 95
215 214 209 207 203 199 196 195 197 194 200 208 200 203 197 187 210 213 212 183 134 142 195 204 229 164 157 167 170 174 181 204 214 212 206 185 184 193 163 156 145 128 124 149 159 172 179 210 223 248 259 264 266 268 272 267 270 277 273 276 286 286 274 264 272 280 281 277 274 281 286 286 291 295 292 241 185 166 159 168 156 141 137 131 114
213 212 212 211 209 208 206 203 203 203 209 206 199 208 207 215 218 204 252 196 126 169 206 205 230 193 167 171 191 219 191 189 193 197 214 202 203 225 181 190 200 159 223 233 188 203 225 230 240 251 252 252 256 259 259 255 272 284 282 282 294 301 289 267 255 263 271 272 271 270 264 266 271 264 258 241 221 206 204 207 193 171 160 150 132
211 213 215 216 216 216 214 211 211 212 215 218 213 216 218 227 220 198 239 265 157 194 160 182 220 221 252 190 192 234 111 148 174 175 219 219 205 223 212 225 230 210 247 258 245 249 248 238 243 254 251 251 253 256 256 253 266 279 282 287 296 304 295 276 260 258 255 259 264 261 252 254 256 256 253 246 238 228 225 226 213 207 200 191 204
211 214 216 219 220 220 218 216 217 214 217 224 225 224 227 227 226 221 226 240 260 285 13 174 205 210 227 229 231 284 18 4 262 164 217 239 223 216 214 230 239 229 243 255 250 246 245 238 241 249 247 246 251 253 255 250 251 248 242 262 281 291 283 269 265 256 241 241 252 252 250 253 257 258 256 250 246 240 238 237 233 238 243 254 275
211 214 217 220 221 222 221 219 218 215 216 221 225 227 227 219 222 232 228 208 215 258 274 203 185 206 221 221 219 247 312 311 291 259 203 228 256 247 222 216 235 240 238 245 240 231 235 241 241 242 242 244 246 251 252 247 255 263 253 256 271 282 275 264 261 253 242 239 244 248 252 258 261 260 259 254 253 250 247 244 244 252 260 270 282
212 215 217 219 222 223 222 219 218 217 215 218 225 227 222 213 213 218 223 217 211 226 250 238 210 212 213 223 224 224 250 255 267 301 285 243 240 251 240 220 249 258 255 264 252 232 229 239 246 245 243 242 240 246 252 245 249 260 270 278 276 270 268 262 258 254 252 249 247 250 252 257 259 259 258 256 255 254 252 251 252 257 264 272 283
214 216 218 220 222 223 223 222 221 218 218 219 224 224 221 215 211 213 218 223 224 226 234 238 238 224 204 216 227 221 229 236 229 238 261 277 265 245 242 232 240 248 267 286 277 251 238 234 240 244 243 242 239 241 243 243 243 241 258 280 283 270 265 259 259 260 259 256 252 252 252 255 257 258 258 257 256 255 254 254 255 258 264 270 278
216 217 219 220 221 223 224 225 223 221 220 220 221 221 222 221 219 220 218 219 225 227 232 238 242 242 223 216 221 222 223 230 235 235 236 250 265 266 253 237 243 222 226 301 305 280 261 246 242 244 241 239 238 238 236 238 240 235 252 275 279 270 268 263 260 261 259 258 255 254 255 255 257 259 259 259 256 255 254 254 256 258 261 263 266
218 218 220 220 220 222 223 225 225 223 221 221 221 220 220 222 223 223 219 218 223 227 236 241 239 239 236 227 225 226 223 223 237 249 252 250 261 281 292 315 323 311 297 306 301 279 262 251 248 246 240 238 236 237 236 235 239 242 254 269 269 263 266 263 261 260 258 257 256 256 257 258 259 260 259 258 256 254 254 253 255 255 255 257 258
218 219 220 218 217 219 221 224 225 224 223 222 221 221 222 222 221 222 222 219 222 226 233 239 237 237 239 234 230 230 229 229 232 234 242 255 273 286 292 304 300 292 295 291 284 270 254 249 248 245 239 239 235 234 236 236 243 251 255 260 262 260 260 259 257 257 257 257 257 257 259 259 261 261 259 257 254 253 253 253 253 254 254 254 254
216 219 220 218 216 216 218 220 222 224 226 226 225 224 225 225 223 224 225 224 223 225 231 235 234 238 244 238 234 232 228 229 236 237 236 244 257 268 279 292 288 289 297 290 292 287 258 241 239 240 236 237 236 235 238 239 243 253 255 254 258 258 257 258 258 257 257 257 258 258 259 260 260 260 258 257 255 253 253 254 254 254 255 255 256
216 217 219 219 218 218 218 219 221 225 228 231 232 228 228 229 229 228 228 229 228 228 232 235 234 235 241 242 239 237 232 230 233 240 245 245 252 266 282 293 288 289 289 276 279 282 263 232 225 232 233 236 238 236 241 244 245 256 260 255 256 260 258 258 258 259 259 259 260 259 259 258 258 258 258 257 256 255 255 254 255 255 256 257 258
219 218 218 218 219 220 221 221 222 226 230 233 232 229 229 230 231 231 230 228 227 229 232 235 236 234 233 238 243 240 237 238 236 239 252 258 264 277 288 293 291 293 294 284 274 268 258 233 216 218 229 237 240 239 244 249 247 256 263 259 256 261 262 261 260 261 262 262 261 261 260 259 258 257 258 258 257 257 256 255 255 255 256 257 258
218 217 217 217 218 220 223 225 225 226 231 233 231 228 227 228 229 230 230 228 226 227 230 233 236 235 232 233 240 242 238 240 244 244 250 258 266 272 275 279 286 295 298 300 294 274 238 231 207 183 206 220 214 228 243 249 251 260 269 268 263 264 267 267 264 263 264 264 264 263 262 261 261 260 259 258 258 257 257 257 256 256 256 256 257
218 218 217 216 217 220 224 227 227 227 230 232 232 228 224 226 229 229 230 230 227 226 229 233 234 235 234 232 233 239 240 239 244 245 244 249 256 257 256 260 266 280 294 298 299 298 285 267 224 182 207 213 199 230 254 258 268 275 276 274 270 268 272 276 274 270 267 266 265 265 264 263 263 263 262 261 260 259 258 258 257 257 256 256 256
217 217 217 216 217 220 223 224 225 227 228 229 230 227 226 227 229 229 230 229 229 230 229 231 233 234 236 236 235 238 238 237 241 243 240 238 243 246 246 248 246 255 274 287 293 294 289 279 258 213 224 233 238 259 265 264 281 294 290 280 278 276 277 281 280 275 270 267 266 266 266 266 265 264 264 263 262 261 260 259 258 258 257 256 255
214 214 214 215 216 218 221 223 223 225 227 227 228 226 227 229 230 231 230 226 228 232 231 231 232 233 233 235 237 238 239 239 241 241 235 231 236 240 238 239 239 241 255 270 279 283 283 285 289 283 259 256 260 265 269 269 281 294 296 286 285 289 288 285 283 280 275 271 270 270 269 269 269 268 267 266 265 264 262 261 260 259 258 257 256
212 211 213 215 216 216 219 221 222 224 226 227 227 226 227 229 230 232 230 226 227 231 233 232 231 232 232 233 236 237 238 239 240 241 236 230 230 234 234 233 234 234 239 248 261 271 276 280 284 282 274 271 268 268 275 279 280 291 298 296 293 296 293 288 286 287 287 283 280 279 277 276 274 272 270 268 267 266 264 263 261 260 259 258 256
211 210 211 213 214 215 218 219 220 222 224 224 225 225 227 228 229 231 231 228 227 230 233 234 233 232 232 233 236 236 236 237 238 240 239 234 229 231 231 229 231 233 229 235 254 270 276 277 278 279 278 277 272 267 273 279 279 284 292 296 297 296 291 285 281 283 289 292 292 289 286 283 281 279 276 273 270 267 265 264 262 261 259 258 257
210 210 210 212 213 214 216 217 218 219 220 220 222 224 225 227 228 230 230 228 228 230 233 234 233 232 233 235 237 236 236 236 237 239 240 238 235 233 231 229 233 235 229 231 248 268 277 278 276 279 279 274 272 268 267 272 278 278 278 282 286 286 284 282 279 278 281 287 292 294 292 287 283 280 277 274 272 270 268 266 263 262 260 258 256
209 210 210 211 211 211 213 215 214 216 216 217 219 221 223 224 226 229 229 229 229 230 232 234 234 233 234 237 239 238 237 236 236 239 241 240 239 239 237 235 236 239 237 234 240 257 273 277 276 277 279 275 272 272 269 268 273 275 276 278 278 278 278 277 277 278 278 280 285 290 289 284 279 275 273 272 271 270 270 268 266 264 262 259 257
209 209 209 210 209 209 211 212 212 213 213 214 216 219 220 221 224 227 229 230 232 232 234 235 236 235 236 238 242 241 238 237 236 237 239 238 236 237 239 238 238 240 239 236 238 248 264 273 273 271 274 275 272 270 269 270 271 270 271 275 277 277 278 276 274 274 275 278 282 286 285 280 275 273 271 270 270 269 269 269 268 267 265 263 261
208 207 207 208 208 209 210 211 211 211 212 213 214 216 219 221 222 226 228 230 232 234 236 236 236 236 237 239 243 243 238 236 236 237 239 237 234 235 237 237 237 238 238 237 238 242 252 264 271 271 271 270 270 268 262 262 269 273 272 272 272 272 275 277 276 273 272 274 278 281 282 282 279 277 275 274 273 272 271 270 269 268 267 266 265
208 207 206 207 208 209 210 211 211 212 212 213 214 216 218 220 222 225 228 230 232 235 237 237 237 236 237 239 242 242 240 237 236 238 237 235 235 236 237 239 239 239 239 239 242 248 254 263 272 277 276 272 271 270 262 256 260 268 274 276 274 271 273 276 277 278 278 277 274 272 273 278 281 283 283 283 283 282 278 274 272 269 268 268 268
207 207 208 208 208 209 210 212 212 212 212 212 213 215 217 218 220 223 227 230 232 235 236 237 238 237 237 238 240 241 239 238 237 238 237 236 238 239 239 240 241 241 243 244 248 254 261 266 271 275 278 278 278 277 276 274 269 266 269 274 275 278 279 275 275 280 282 282 281 277 274 277 281 284 286 286 286 285 282 278 276 274 272 270 269
207 209 209 209 209 209 210 212 212 212 211 212 212 213 214 216 218 221 226 230 233 235 236 238 238 238 238 239 242 242 240 240 239 236 235 233 236 242 244 242 240 241 246 249 250 253 258 264 268 271 274 277 278 280 285 286 282 278 275 271 273 283 287 279 275 280 284 285 287 287 285 284 284 284 286 286 285 285 284 280 278 277 275 274 272
208 211 211 211 209 209 210 211 211 212 212 212 212 211 211 212 215 220 224 228 233 235 236 238 238 237 239 241 243 244 242 242 243 243 241 236 236 242 244 243 243 245 250 252 252 253 255 259 264 267 270 272 272 276 282 282 279 283 288 284 278 282 286 285 284 285 284 284 287 289 288 289 289 288 286 283 284 287 288 287 285 282 280 278 276
209 211 211 212 211 211 210 209 210 210 212 213 215 215 214 212 212 217 222 227 231 233 233 236 238 238 240 242 245 246 244 246 249 253 255 252 252 254 252 249 247 248 253 255 256 255 254 257 261 263 267 270 271 276 279 277 277 287 298 288 277 281 289 290 290 291 288 287 290 292 292 290 289 291 288 282 280 283 282 281 283 284 284 283 279
209 210 210 212 213 213 211 210 210 211 213 215 217 220 221 219 214 214 219 225 229 230 232 234 237 240 241 242 244 245 246 248 253 259 263 263 263 264 262 259 255 252 252 254 257 257 256 259 260 262 267 271 274 278 276 275 293 334 315 288 276 283 288 284 287 299 304 303 302 298 297 292 283 286 288 281 277 282 281 276 277 279 280 282 282
207 208 210 212 213 214 214 214 214 215 216 217 219 223 226 226 224 219 219 225 229 229 231 233 235 239 240 241 243 242 243 246 249 255 263 269 271 270 270 270 266 261 257 254 256 257 259 264 264 264 268 271 275 278 275 283 325 8 301 289 281 279 280 279 285 296 300 303 303 298 297 295 285 280 283 280 275 278 281 281 281 281 280 281 282
206 208 211 212 213 214 215 217 217 218 220 220 222 226 229 230 230 227 223 226 230 231 232 233 235 236 235 237 239 240 242 244 245 247 252 262 270 274 276 276 274 271 265 259 257 255 256 261 264 265 267 268 273 276 279 295 310 119 227 279 278 274 276 280 286 290 295 298 296 292 293 292 287 280 281 284 280 274 278 284 286 285 285 285 284
207 209 211 212 213 214 215 218 220 221 223 223 224 228 231 233 233 231 228 228 232 234 234 234 235 235 234 234 236 238 241 241 241 243 245 249 257 264 270 272 272 273 272 267 265 262 260 259 259 262 264 267 275 279 286 298 298 144 190 271 274 276 280 284 285 287 292 294 289 285 285 285 287 283 280 285 287 279 280 287 290 290 289 287 285
208 209 211 213 213 213 215 217 220 223 225 226 226 229 233 234 234 233 231 230 232 236 236 235 236 236 236 235 236 239 241 239 240 241 242 245 249 254 258 261 263 264 265 265 266 267 267 265 261 261 262 267 276 282 290 296 283 238 283 279 276 281 285 287 287 284 290 295 289 274 273 281 287 283 281 287 293 288 287 290 292 293 292 289 286
210 209 211 213 213 213 215 216 219 224 226 226 226 229 233 235 233 232 232 231 232 235 236 236 236 236 236 236 237 240 240 241 243 245 246 249 252 256 260 263 264 264 263 263 261 258 260 264 263 262 264 271 278 285 294 290 264 268 286 281 282 286 285 286 289 283 287 296 289 265 268 282 288 285 287 294 296 292 292 292 291 293 292 292 291
208 209 210 213 214 215 216 216 218 223 226 226 227 229 232 233 231 229 229 228 230 233 235 236 235 236 236 236 237 240 241 242 245 247 252 254 253 255 262 266 268 268 268 269 267 264 264 267 269 270 272 277 280 285 294 285 265 264 271 272 281 288 280 276 283 284 285 291 287 276 274 282 288 288 291 297 296 293 293 293 293 293 291 292 294
208 209 210 213 215 216 216 217 217 221 226 227 227 229 231 231 231 228 225 224 228 232 234 236 235 236 238 238 239 239 240 243 245 247 252 255 251 252 259 265 268 269 271 273 272 273 274 274 278 282 284 285 280 278 286 281 271 268 266 264 273 278 267 262 273 283 289 287 285 285 279 281 290 293 295 298 296 294 296 297 298 298 294 296 299
208 209 211 213 216 217 218 219 219 222 226 228 229 230 230 231 231 227 221 221 226 229 232 235 235 236 239 241 243 243 242 244 246 247 251 253 250 248 254 262 266 268 272 274 272 277 281 282 286 288 289 291 287 288 296 288 275 278 274 266 268 263 255 262 274 284 293 291 288 289 285 288 293 293 296 300 298 297 300 301 301 299 297 300 301